Showing default

A-1 (ASTERIX), 1778

Orbit data source: Space-Track

A-1 (ASTERIX), 1778 is a payload satellite owned by CNES (FR) in LEO that was launched on Fri, 26 Nov 1965 UTC via a DIAMANT A launch vehicle from the Hamma Guira Space Track Range (HGSTR). Payloads include a variety of satellites, spacecraft, and rockets equipped with specific instruments for various scientific and technological missions. These include communications satellites like Starlink; space stations such as the ISS; scientific satellites like the Hubble; Earth observation satellites from companies like Planet Labs, Umbra, and HawkEye 360; GPS; miniature CubeSats for education and research; and military/defense satellites.

Loading next visibility...
A-1 (ASTERIX) details
Identifier
1778, 1965-096A
Orbit
LEO
Last TLE update8 hours ago
Origin
Flag of FRCNES (FR)
ManufacturerCNES
MissionCivil Technology
Bus & MotorA-1, Unknown motor
Mass42 kg wet, 42 kg dry
Launch date (UTC)
1965-11-26 (59 years ago)
Launch vehicle
DIAMANT A
Launch site
Hamma Guira Space Track Range (HGSTR)
Object type
Payload
Rocket body
Debris
Shape & HBRPoly, 0.55 m
Radar Cross Section0.337 m², Medium (>0.1 m² and < 1m²)

Expand to show TLE details & history

TLE from 8 hours ago
0 A-1 (ASTERIX)
1 01778U 65096A   25015.63339668  .00001361  00000-0  36514-3 0  9999
2 01778  34.2524 218.0345 0742334 143.5482 221.8118 13.49022863894842
Epoch: 2025-01-15T15:12Z
Definitive object data (Epoch: 2025-01-15T15:12:05.473Z)
Latitude-0°
Longitude-125.31125°
Altitude1,503.937 km
Speed6.907 km/s
True Right ascension14h 32m 08s
True Declination0° 00' 00"
Sunlit
Object was in daylight at TLE epoch
Visualization TLE readout
Latitude-34.31058°
Longitude147.22755°
Altitude1,394.369 km
Speed7.013 km/s
Apparent Right ascension10h 14m 26s
Apparent Declination-39° 48' 27"
Sunlit
Object is in daylight
Visualization observer readout
Local Sidereal Time00:17:58
Azimuth99.784° ESE
Elevation-66.414°
Doppler factor1
Orbital elements
Apogee altitude1,632.556 km
Perigee altitude525.42 km
Semi-major axis7,457.125 km
Eccentricity0.0742334
Inclination34.2524°
RAAN218.0345°
Arg. of periapsis143.5482°
True anomaly216.51581°
Mean anomaly221.8118°
Eccentric anomaly219.12777°
Mean motion3.37044 °/min
BSTAR0.00036514
Orbital period106.81 mins
Loading maneuver chart data...
Loading historical data...
Loading historical data...
Loading historical data...
Loading historical data...
Loading historical data...
Loading historical data...
Loading historical data...
Other satellites on launch #96 in the year 1965 (1965-11-26 UTC)

A-1 (ASTERIX) Visibility forecast

Observer location: undefined°, undefined

Span
Click to sort rows by Start time (UTC) header in descending order
Start Az.
Max El. time (UTC)
Max El. Az.
Max El.
End time (UTC)
End Az.
9 mins2025-01-16 16:16:46.300Z203.198° SW2025-01-16 16:21:46.300Z153.16° SSE24.45°2025-01-16 16:25:46.300Z109.075° ESE
10 mins2025-01-16 18:08:46.300Z239.104° WSW2025-01-16 18:13:46.300Z186.256° SSW34.62°2025-01-16 18:18:46.300Z103.929° ESE
8 mins2025-01-16 20:02:46.300Z253.992° W2025-01-16 20:06:46.300Z194.592° SSW33.91°2025-01-16 20:10:46.300Z120.876° SE
5 mins2025-01-16 21:56:46.300Z240.969° WSW2025-01-16 21:58:46.300Z210.968° SW17.774°2025-01-16 22:01:46.300Z162.745° S
|